Flag for Canada Weather past 2 weeks in Saint John, New Brunswick, Canada

Now
48 °F

Passing clouds.


Feels Like: 48 °F
Forecast: 53 / 73 °F
Wind: No wind

Location: Saint John

Current Time: Jul 3, 2015 at 3:41:51 AM

Latest Report: Jul 3, 2015 at 2:00 AM


Visibility: 15 mi

Pressure: 29.85 "Hg

Humidity: 100%

Dew point: 48 °F

Location of Saint JohnLocation

Historic Weather in Saint John — Graph

°F

Saint John temperature yesterday

Maximum temperature yesterday: 68 °F (at 4:00 PM)
Minimum temperature yesterday: 52 °F (at 11:00 PM)
Average temperature yesterday: 59 °F

Past Weeks' High & Low Weather Summary

 TemperatureHumidityPressure
High77 °F (Jun 24, 5:00 PM)100% (Jun 19, 11:00 AM)30.21 "Hg (Jun 19, 11:00 AM)
Low39 °F (Jun 20, 6:00 AM)32% (Jun 20, 12:00 PM)29.63 "Hg (Jun 22, 4:00 AM)
Average57 °F79%29.93 "Hg
* Reported Jun 18 2:00 AM — Jul 3 2:00 AM, Saint John, Weather by CustomWeather, © 2015

Note: Actual official high and low records may vary slightly from our data, if they occured in-between our weather recording intervals... More about our weather records

Advertising

Saint John weather history for previous 24 hours

 ConditionsComfort  
Time TempWeatherWind HumidityBarometerVisibility
2:00 AM
Fri, Jul 3
48 °FPassing clouds.No wind100%29.85 "Hg15 mi
1:00 AM50 °FPartly cloudy.No wind100%29.85 "Hg15 mi
12:00 AM52 °FPartly cloudy.No wind94%29.86 "Hg15 mi
11:00 PM
Thu, Jul 2
52 °FPartly cloudy.No wind100%29.85 "Hg15 mi
10:00 PM54 °FBroken clouds.7 mph100%29.85 "Hg10 mi
9:00 PM55 °FPartly sunny.9 mph94%29.84 "Hg15 mi
8:00 PM59 °FScattered clouds.10 mph82%29.82 "Hg15 mi
7:00 PM63 °FScattered clouds.14 mph77%29.81 "Hg15 mi
6:00 PM66 °FScattered clouds.16 mph68%29.81 "Hg15 mi
5:00 PM68 °FPassing clouds.15 mph64%29.80 "Hg15 mi
4:00 PM68 °FScattered clouds.16 mph64%29.80 "Hg15 mi
3:00 PM66 °FPartly sunny.16 mph73%29.81 "Hg15 mi
2:00 PM59 °FFog.16 mph88%29.81 "Hg2 mi
1:00 PM63 °FLow clouds.13 mph88%29.80 "Hg10 mi
12:00 PM61 °FPartly sunny.13 mph94%29.79 "Hg10 mi
11:00 AM59 °FFog.12 mph100%29.78 "Hg3 mi
10:00 AM55 °FFog.10 mph100%29.78 "Hg1 mi
9:00 AM55 °FFog.12 mph100%29.77 "Hg0 mi
8:00 AM55 °FFog.10 mph100%29.76 "Hg0 mi
7:00 AM55 °FFog.10 mph100%29.74 "Hg0 mi
6:00 AM57 °FFog.13 mph100%29.74 "Hg1 mi
5:00 AM57 °FFog.13 mph100%29.73 "Hg1 mi
4:00 AM57 °FFog.10 mph100%29.74 "Hg0 mi
3:00 AM55 °FFog.12 mph100%29.75 "Hg0 mi
Weather by CustomWeather, © 2015

See weather overviewHow to use our weather pages